Hourly Data Report for July 13, 2021

LYNN LAKE
MANITOBA
Current Station Operator: NAVCAN

56°51'50.000" N
101°04'34.000" W
356.60 m
5061645
71078
YYL

Download Data

Hourly Data (July 2021)
Hourly Data Report for July 13, 2021
TIME
LST
Temp Definition
°C
Dew Point Definition
°C
Rel Hum Definition
%
Precip. Amount Definition
mm

Wind Dir Definition
10's deg

Wind Spd Definition
km/h
Visibility Definition
km
Stn Press Definition
kPa
Hmdx Definition


Wind Chill Definition


Weather Definition


00:00 13.9 10.5 80 0.0 32 11 16.1 97.23     LegendNANA
01:00 14.1 10.7 80 0.0 34 9 16.1 97.28     LegendNANA
02:00 13.1 10.7 85 0.0 34 5 16.1 97.32     LegendNANA
03:00 12.6 10.7 88 0.0 32 9 16.1 97.37     LegendNANA
04:00 12.5 10.6 88 0.0 30 9 16.1 97.41     LegendNANA
05:00 11.6 10.2 91 0.0 33 8 16.1 97.46     LegendNANA
06:00 13.9 10.9 82 0.0 36 4 16.1 97.52     LegendNANA
07:00 15.6 10.8 73 0.0 3 5 16.1 97.57     LegendNANA
08:00 17.3 8.7 57 0.0 3 11 16.1 97.59     LegendNANA
09:00 18.7 8.4 51 0.0 1 17 16.1 97.60     LegendNANA
10:00 19.8 7.8 46 0.0 32 17 16.1 97.59     LegendNANA
11:00 20.4 7.4 43 0.0 32 9 16.1 97.59     LegendNANA
12:00 20.9 7.3 41 0.0 LegendMM 13 16.1 97.58     LegendNANA
13:00 21.6 6.8 38 0.0 29 11 16.1 97.58     LegendNANA
14:00 22.1 5.6 34 0.0 31 15 16.1 97.57     LegendNANA
15:00 21.8 6.0 36 0.0 32 11 16.1 97.57     LegendNANA
16:00 22.4 6.5 35 0.0 31 13 16.1 97.54     LegendNANA
17:00 23.2 6.8 34 0.0 LegendMM 4 16.1 97.53     LegendNANA
18:00 23.1 6.4 34 0.0 30 17 16.1 97.51     LegendNANA
19:00 22.1 7.5 39 0.0 35 11 16.1 97.52     LegendNANA
20:00 21.0 6.7 39 0.0 34 11 16.1 97.50     LegendNANA
21:00 19.2 8.0 48 0.0 28 8 16.1 97.50     LegendNANA
22:00 16.2 8.4 60 0.0   0 16.1 97.53     LegendNANA
23:00 15.2 8.8 65 0.0 23 5 16.1 97.52     LegendNANA

Notes on Data Quality.

Legend

  • E = Estimated
  • M = Missing
  • NA = Not Available*
  • [empty] = Indicates an unobserved value
Date modified: